Weather in Zarichne

Ukraine / Kharkiv Region     50°06′11″N   36°50′42″E
temp.,
°C
wind,
m/s
gust,
m/s
humid.,
%
clouds,
%
prec.,
mm/h
press.,
hPa
HPBL,
m
7 may, fri
fri700:00+10nnw5888100 0.2 1012432
03:00+9nnw3693100 4.1 1013436
06:00+8nw479595 0.2 1013314
09:00+12nnw34694 0.2 1015710
12:00+15wnw235165 0.0 10151851
15:00+17s2341100 0.0 10151945
18:00+16s355893 0.0 1014355
21:00+12sse476485 0.0 1014112
8 may, sat
sat800:00+10se61466100 0.0 1014326
03:00+12sse7156199 0.0 1012470
06:00+11sse61370100 0.0 1011460
09:00+11sse71584100 0.3 1009594
12:00+12s81792100 3.5 1008787
15:00+13ssw71294100 6.1 1008882
18:00+13wsw61086100 0.5 1009757
21:00+8wnw51387100 0.6 1012686
9 may, sun
sun900:00+7nw61085100 0.1 1013790
03:00+6nw51186100 0.1 1015841
06:00+5nw6118997 0.0 1016640
09:00+7nnw6972100 0.0 10191000
12:00+11nnw71051100 0.0 10191844
15:00+12nnw8945100 0.0 10202493
18:00+11nnw611598 0.0 10221911
21:00+7nnw49745 0.1 1025180
10 may, mon
mon1000:00+5nnw38790 0.0 1026144
03:00+4nnw49801 0.0 1027192
06:00+4nnw512771 0.0 1028292
09:00+10n711595 0.0 10281152
12:00+13n911475 0.0 10261803
15:00+14n9124818 0.0 10251921
18:00+13n8145893 0.0 10241575
21:00+12nne91555100 0.0 10241118
11 may, tue
tue1100:00+11nne101857100 0.0 1022797
03:00+10nne9176197 0.0 1021641
06:00+10nne81566100 0.0 1021564
09:00+10ne91776100 0.1 1022838
12:00+10ne7138773 0.1 1022655
15:00+13ene61173100 0.3 10221530
18:00+14ene596433 0.0 10221487
21:00+10e4874100 0.0 1023362